{"data":{"norad_id":65081,"intl_designator":"2025-167D","name":"STARLINK-34561","alt_names":[],"object_type":"PAYLOAD","status":"ACTIVE","operator":null,"country":"US","launch_date":"2025-08-04","launch_site_code":"AFETR","launch_vehicle":null,"mission":null,"orbit_class":"UNKNOWN","rcs_meters":null,"size_class":null,"mass_kg":null,"dimensions":null,"purposes":["comms"],"wikipedia_slug":null,"has_3d_model":false,"image_url":null,"decayed_at":null,"tle_current":{"epoch":"2026-05-24T22:53:42.952704Z","epoch_age_seconds":75170,"freshness":"FRESH","line1":"1 65081U 25167D   26144.95396936  .00015359  00000+0  52955-3 0  9999","line2":"2 65081  53.1604  29.8113 0001117  87.9600 272.1529 15.30204693 46444","mean_motion":15.30204693,"eccentricity":0.0001117,"inclination_deg":53.1604,"raan_deg":29.8113,"arg_perigee_deg":87.96,"mean_anomaly_deg":272.1529,"bstar":0.00052955,"rev_number":4644,"period_min":94.105057093822,"perigee_km":474.43553914209,"apogee_km":475.96657486402,"semimajor_km":6853.3380570031,"source":"CELESTRAK","updated_at":"2026-05-25T13:38:20.682793Z"}}}